[[{"header":{"parameterUnit":"m.s-1","parameterCategory":2,"la1":30.2991,"la2":30.254,"lo1":-89.0895,"lo2":-89.0444,"dy":0.0017,"dx":0.0017,"nx":28,"ny":28,"refTime":"2025-11-24T03:00:00:Z","depth":"0","parameterNumber":2,"parameterNumberName":"U-component_of_CURRENTS"},"data":[0,0,0,0,0,0,0,0,0,0,0,0,0,0,0,0,0,0,0,0,0,0,0,0,0,0,0,0,0,0,0,0,0,0,0,0,0,0,0,0,0,0,0,0,0,0,0,0,0,0,0,0,0,0,0,0,0,0,0.2991,0.2992,0,0.3009,0.3009,0.3009,0.2999,0.2998,0.2998,0.2998,0.2997,0.2997,0.2997,0,0,0,0,0,0,0,0,0,0,0,0,0,0.2962,0.2962,0.2991,0.2992,0.2992,0.3009,0.3009,0.3009,0.2999,0.2998,0.2998,0.2998,0.2997,0.2997,0.2997,0,0,0,0,0,0,0,0,0,0,0,0,0,0.2974,0.2962,0.2991,0.2991,0.2991,0.3009,0.3009,0.3009,0.2999,0.2998,0.2998,0.2997,0.2997,0.2997,0.2997,0.3009,0,0,0.2999,0.2999,0,0,0,0,0,0,0,0,0.2974,0.2975,0.299,0.2991,0.2991,0.3003,0.2999,0.3009,0.2999,0.2993,0.2998,0.2997,0.2999,0.2999,0.3001,0.3009,0.3009,0.2999,0.2999,0.2999,0.2999,0,0,0,0,0,0,0,0.2973,0.2974,0.2996,0.2991,0.2991,0.2995,0.2995,0.3001,0.2996,0.2994,0.2994,0.3,0.2999,0.3,0.3001,0.3009,0.2999,0.2999,0.2999,0.2999,0.3085,0.3087,0,0,0,0,0,0,0.2975,0.2974,0.2995,0.2997,0.2984,0.2995,0.2996,0.2998,0.2997,0.2997,0.3,0.2999,0.3,0.3,0.3001,0.3081,0.2999,0.2999,0.3,0.3083,0.3086,0.3088,0,0,0,0,0,0,0.2974,0.2977,0.2995,0.2988,0.299,0.2997,0.2998,0.2999,0.3003,0.3002,0.3001,0.3005,0.3,0.3,0.3024,0.3078,0.3,0.3,0.3081,0.3084,0.3087,0.3199,0,0,0,0,0,0,0.2973,0.2976,0.2978,0.2988,0.2991,0.3019,0.2999,0.2999,0.3009,0.3008,0.3006,0.3006,0.2999,0.3024,0.3025,0.3077,0.3,0.3078,0.3082,0.3086,0.3193,0.3206,0.3217,0,0,0,0,0,0.2972,0.2983,0.2978,0.298,0.2993,0.302,0.3022,0.3023,0.301,0.3023,0.3026,0.3006,0.3049,0.3026,0.3026,0.308,0.3076,0.3081,0.3085,0.3187,0.3203,0.3216,0,0,0,0,0,0,0.297,0.2984,0.2978,0.2991,0.3008,0.3019,0.3036,0.3028,0.3039,0.304,0.3026,0.3027,0.3073,0.3056,0.303,0.3116,0.3062,0.3067,0.3139,0.3154,0.3165,0.3178,0.3001,0,0,0,0,0,0.2971,0.2984,0.2996,0.3009,0.3021,0.3026,0.3036,0.3039,0.305,0.3054,0.3052,0.3062,0.3092,0.3104,0.3118,0.3157,0.3184,0.3194,0.3206,0.3216,0.3227,0.334,0.3364,0.3103,0.3103,0.3103,0,0,0.2974,0.2984,0.2991,0.301,0.3024,0.3062,0.3031,0.3059,0.3091,0.3053,0.3094,0.31,0.3111,0.3167,0.3185,0.3159,0.3303,0.3222,0.3231,0.3236,0.3347,0.3373,0.3396,0.3106,0.3106,0.3105,0,0,0.3001,0.3,0.3025,0.3048,0.3076,0.3089,0.3098,0.3116,0.3125,0.3165,0.3158,0.3198,0.322,0.3253,0.3271,0.3354,0.3362,0.3355,0.3429,0.3539,0.3563,0.3583,0.3647,0.3673,0.3362,0.3362,0.3363,0,0.3008,0.3035,0.3038,0.3077,0.3107,0.3106,0.3152,0.317,0.3191,0.322,0.3194,0.3287,0.3273,0.338,0.3396,0.3385,0.3433,0.3376,0.3558,0.3579,0.3598,0.3659,0.3686,0.3368,0.3368,0.3367,0.3366,0,0.3057,0.3085,0.3109,0.3159,0.3192,0.3232,0.3264,0.3295,0.3305,0.3329,0.3421,0.343,0.3492,0.3495,0.3462,0.3597,0.3581,0.3563,0.3527,0.3632,0.3688,0.3714,0.3377,0.3375,0.3373,0.3371,0,0,0.3062,0.3129,0.3137,0.3174,0.3239,0.3271,0.3345,0.3414,0.3476,0.3511,0.3607,0.3653,0.3664,0.3684,0.3677,0.3746,0.3893,0.3706,0.3709,0.3777,0.4124,0.403,0.4048,0.3922,0.3927,0.3931,0.4108,0,0.3102,0.3175,0.3207,0.3295,0.334,0.3384,0.3457,0.3523,0.3574,0.3661,0.3713,0.3794,0.374,0.3781,0.3853,0.3883,0.3967,0.3845,0.4004,0.4008,0.392,0.4078,0.3845,0.3976,0.4133,0.4137,0.414,0,0.314,0.3186,0.3264,0.3367,0.3394,0.3448,0.3573,0.3643,0.3766,0.3812,0.3923,0.3957,0.4072,0.4001,0.4171,0.4102,0.4124,0.414,0.4148,0.4039,0.3963,0.3897,0.4017,0.3907,0.4179,0.4176,0.4174,0,0.3134,0.3231,0.3289,0.3323,0.3436,0.3488,0.356,0.3684,0.3772,0.3916,0.401,0.4144,0.4228,0.4312,0.4331,0.4277,0.4501,0.4437,0.4387,0.4378,0.4198,0.4165,0.4235,0.458,0.458,0.4579,0.4579,0,0.3166,0.3219,0.3284,0.332,0.3416,0.3495,0.3626,0.371,0.3867,0.3996,0.4092,0.4225,0.4312,0.4433,0.4432,0.4502,0.4607,0.444,0.4444,0.4226,0.4195,0.41,0.4053,0.4586,0.4585,0.4583,0.4582,0,0.3171,0.3205,0.328,0.3379,0.3411,0.3485,0.3656,0.3758,0.3905,0.4084,0.4145,0.433,0.4479,0.4557,0.4681,0.4631,0.4559,0.4684,0.4394,0.436,0.4159,0.4125,0.4074,0.3962,0.4668,0.4667,0.4666,0,0.318,0.3211,0.3303,0.3354,0.3401,0.3515,0.3603,0.3751,0.386,0.4143,0.4224,0.4433,0.4547,0.471,0.4647,0.4679,0.4555,0.4479,0.4322,0.4158,0.4127,0.3973,0.3871,0.4129,0.4124,0.412,0.4117,0,0.3219,0.3239,0.3312,0.34,0.3474,0.3563,0.3686,0.3759,0.395,0.4096,0.4284,0.4405,0.4543,0.446,0.4492,0.4469,0.424,0.4393,0.4322,0.3807,0.3549,0.3436,0.3981,0.408,0.4083,0.4086,0.4088,0.409,0.3255,0.3304,0.3387,0.3478,0.3556,0.3601,0.3619,0.3737,0.3865,0.3996,0.4194,0.4245,0.4266,0.4259,0.4221,0.3972,0.4,0.381,0.3816,0.3701,0.3486,0.3932,0.3967,0.397,0.3973,0.3975,0.3977,0,0.33,0.3369,0.3464,0.3542,0.36,0.3622,0.3675,0.3632,0.3681,0.3793,0.3902,0.3861,0.3788,0.3753,0.3576,0.3415,0.3239,0.3323,0.3056,0.3012,0.35,0.3366,0.3151,0.3151,0.3151,0.3151,0.3151,0.3151,0.3339,0.3429,0.3472,0.3566,0.3598,0.3543,0.3511,0.3432,0.3423,0.3338,0.3259,0.3303,0.3395,0.3343,0.3132,0.3037,0.2821,0.2649,0.2725,0.3062,0.3106,0.3149,0.3013,0.2727,0.2727,0.2048,0.2043,0.204]},{"header":{"parameterUnit":"m.s-1","parameterCategory":2,"la1":30.2991,"la2":30.254,"lo1":-89.0895,"lo2":-89.0444,"dy":0.0017,"dx":0.0017,"nx":28,"ny":28,"refTime":"2025-11-24T03:00:00:Z","depth":"0","parameterNumber":3,"parameterNumberName":"V-component_of_CURRENTS"},"data":[0,0,0,0,0,0,0,0,0,0,0,0,0,0,0,0,0,0,0,0,0,0,0,0,0,0,0,0,0,0,0,0,0,0,0,0,0,0,0,0,0,0,0,0,0,0,0,0,0,0,0,0,0,0,0,0,0,0,0.0238,0.0238,0,0.0218,0.0217,0.0217,0.019,0.019,0.019,0.0189,0.0155,0.0154,0.0154,0,0,0,0,0,0,0,0,0,0,0,0,0,0.0226,0.0227,0.0238,0.0238,0.0238,0.0218,0.0217,0.0217,0.019,0.019,0.019,0.0189,0.0155,0.0154,0.0154,0,0,0,0,0,0,0,0,0,0,0,0,0,0.022,0.0227,0.0238,0.0223,0.0222,0.0218,0.0217,0.0217,0.0191,0.019,0.019,0.0189,0.0155,0.0154,0.0153,0.0157,0,0,0.0151,0.015,0,0,0,0,0,0,0,0,0.022,0.022,0.0226,0.0224,0.0223,0.0207,0.0201,0.0197,0.0191,0.0201,0.0189,0.0189,0.0172,0.017,0.0165,0.0156,0.0154,0.015,0.015,0.015,0.0149,0,0,0,0,0,0,0,0.0221,0.0221,0.0229,0.0225,0.0224,0.0208,0.0207,0.0199,0.0188,0.02,0.0198,0.0198,0.0171,0.0166,0.0164,0.0154,0.0151,0.015,0.0149,0.0149,0.0145,0.0145,0,0,0,0,0,0,0.0228,0.0222,0.0229,0.0228,0.0222,0.0209,0.0207,0.0212,0.0189,0.0185,0.0199,0.0197,0.0168,0.0166,0.0163,0.0184,0.015,0.0149,0.0148,0.0144,0.0145,0.0145,0,0,0,0,0,0,0.0228,0.0229,0.023,0.0225,0.0224,0.021,0.0215,0.0211,0.0207,0.0188,0.0184,0.0198,0.0168,0.0164,0.0162,0.0182,0.0148,0.0147,0.0144,0.0144,0.0145,0.0214,0,0,0,0,0,0,0.0228,0.023,0.0233,0.0226,0.0225,0.0238,0.0215,0.0211,0.0208,0.0206,0.0186,0.0182,0.0167,0.0164,0.0162,0.018,0.0147,0.0143,0.0144,0.0145,0.0211,0.0217,0.0222,0,0,0,0,0,0.0228,0.0244,0.0234,0.0235,0.0231,0.0238,0.0237,0.0223,0.0209,0.0215,0.0199,0.0183,0.0167,0.0164,0.0161,0.0179,0.0143,0.0144,0.0145,0.0209,0.0216,0.0222,0,0,0,0,0,0,0.0242,0.0242,0.0231,0.0246,0.0244,0.0235,0.024,0.0227,0.0219,0.0214,0.0191,0.0187,0.0189,0.0173,0.017,0.0178,0.0151,0.0152,0.0201,0.0208,0.0213,0.0237,0.0146,0,0,0,0,0,0.0247,0.0257,0.0252,0.0263,0.0265,0.025,0.0249,0.024,0.0233,0.0228,0.0215,0.02,0.0191,0.0191,0.0178,0.0188,0.0182,0.0196,0.0201,0.0206,0.0222,0.0239,0.0248,0.0149,0.0149,0.0148,0,0,0.0255,0.0257,0.0262,0.0267,0.0262,0.0282,0.0249,0.0254,0.0272,0.0226,0.0244,0.0216,0.0196,0.0204,0.0205,0.0196,0.0226,0.0207,0.0212,0.0226,0.0241,0.0251,0.026,0.0149,0.0149,0.0149,0,0,0.0288,0.0279,0.0302,0.0307,0.0308,0.0303,0.0307,0.03,0.0298,0.0307,0.0276,0.0266,0.0255,0.0248,0.0242,0.0271,0.025,0.0258,0.0314,0.033,0.0339,0.0347,0.0338,0.0344,0.0267,0.0267,0.0268,0,0.0298,0.0329,0.0309,0.0337,0.0355,0.0318,0.0356,0.0348,0.0341,0.0352,0.0322,0.0318,0.0282,0.0311,0.0305,0.0286,0.0282,0.0294,0.034,0.0347,0.0354,0.0343,0.0349,0.0271,0.0271,0.027,0.027,0,0.0352,0.0377,0.0394,0.0419,0.0432,0.0457,0.045,0.0454,0.044,0.0435,0.0452,0.0411,0.0418,0.0391,0.035,0.0383,0.0358,0.0341,0.0329,0.0369,0.0353,0.0359,0.0276,0.0275,0.0274,0.0273,0,0,0.0383,0.0426,0.0433,0.0471,0.0483,0.0507,0.053,0.0556,0.0594,0.0563,0.0625,0.0566,0.0544,0.0535,0.049,0.0481,0.0494,0.0429,0.0428,0.043,0.0516,0.0463,0.0463,0.0489,0.0491,0.0492,0.0481,0,0.0437,0.0515,0.0519,0.0598,0.0644,0.063,0.0671,0.0682,0.0681,0.0724,0.068,0.0713,0.0603,0.0619,0.0589,0.0533,0.0514,0.0497,0.0468,0.0467,0.0425,0.047,0.0456,0.0443,0.0486,0.0487,0.0488,0,0.0496,0.0547,0.0633,0.0717,0.0737,0.0772,0.0841,0.0875,0.0901,0.0908,0.0914,0.0887,0.0875,0.0782,0.071,0.0707,0.0613,0.055,0.0548,0.0484,0.0426,0.0412,0.0451,0.0309,0.0496,0.0495,0.0494,0,0.0549,0.0633,0.0711,0.0736,0.0812,0.0851,0.0894,0.0929,0.0994,0.1039,0.1101,0.1062,0.108,0.0975,0.0817,0.0777,0.0736,0.0675,0.0537,0.0531,0.0506,0.0496,0.0417,0.0624,0.0624,0.0624,0.0624,0,0.0619,0.0686,0.0743,0.0791,0.0902,0.0928,0.1046,0.1073,0.1157,0.1272,0.1214,0.1307,0.1128,0.1076,0.0904,0.0749,0.081,0.0561,0.0537,0.0525,0.0517,0.038,0.0279,0.0624,0.0624,0.0624,0.0624,0,0.0677,0.0706,0.0809,0.0897,0.093,0.1014,0.1151,0.124,0.1306,0.1463,0.15,0.1501,0.1437,0.1241,0.1075,0.0879,0.063,0.0648,0.0629,0.0601,0.0313,0.0215,0.0098,0.0026,0.0502,0.05,0.0499,0,0.0717,0.0773,0.0884,0.0951,0.0995,0.1119,0.121,0.1301,0.1413,0.1602,0.1696,0.1687,0.1715,0.1445,0.1091,0.0799,0.0624,0.0566,0.0473,0.0311,0.0185,0.0119,0.0062,0.0461,0.046,0.0459,0.0458,0,0.0805,0.0833,0.0917,0.1046,0.1146,0.1279,0.142,0.1531,0.1676,0.1835,0.203,0.2082,0.182,0.1516,0.1072,0.0859,0.0451,0.0533,0.0392,0.017,0.0071,-0.0014,0.0433,0.0449,0.045,0.045,0.0451,0.0451,0.0864,0.0937,0.1032,0.1161,0.1278,0.1428,0.1557,0.1729,0.1946,0.2199,0.2248,0.2346,0.189,0.1294,0.0988,0.0381,0.0373,0.0187,0.0089,0.0044,-0.0049,0.036,0.0328,0.0328,0.0328,0.0328,0.0328,0,0.0936,0.1018,0.1143,0.1295,0.1433,0.1475,0.1694,0.1841,0.211,0.2319,0.2504,0.2307,0.1775,0.1206,0.0381,0.0001,-0.012,-0.0189,-0.0275,-0.0308,0.009,0.0065,-0.0056,-0.0055,-0.0055,-0.0055,-0.0055,-0.0055,0.098,0.11,0.1165,0.1394,0.1506,0.1692,0.1818,0.2048,0.2223,0.2465,0.2495,0.2497,0.203,0.0695,-0.0172,-0.0353,-0.0588,-0.0667,-0.0767,-0.0497,-0.0469,-0.0442,-0.0486,-0.0721,-0.0722,-0.1106,-0.1111,-0.1114]}],[{"header":{"parameterUnit":"m.s-1","parameterCategory":2,"la1":30.2991,"la2":30.254,"lo1":-89.0895,"lo2":-89.0444,"dy":0.0017,"dx":0.0017,"nx":28,"ny":28,"refTime":"2025-11-24T03:00:00:Z","depth":"2","parameterNumber":2,"parameterNumberName":"U-component_of_CURRENTS"},"data":[0,0,0,0,0,0,0,0,0,0,0,0,0,0,0,0,0,0,0,0,0,0,0,0,0,0,0,0,0,0,0,0,0,0,0,0,0,0,0,0,0,0,0,0,0,0,0,0,0,0,0,0,0,0,0,0,0,0,0.2603,0.2603,0,0.2625,0.2625,0.2625,0.2633,0.2633,0.2633,0.2633,0.2648,0.2649,0.2649,0,0,0,0,0,0,0,0,0,0,0,0,0,0.2567,0.2568,0.2603,0.2603,0.2604,0.2625,0.2625,0.2625,0.2632,0.2633,0.2633,0.2633,0.2648,0.2649,0.2649,0,0,0,0,0,0,0,0,0,0,0,0,0,0.2584,0.2568,0.2603,0.2611,0.2612,0.2625,0.2625,0.2625,0.2632,0.2633,0.2633,0.2633,0.2648,0.2649,0.2649,0.2651,0,0,0.2651,0.2651,0,0,0,0,0,0,0,0,0.2583,0.2585,0.261,0.2611,0.2612,0.2627,0.2618,0.2634,0.2632,0.2623,0.2633,0.2633,0.2642,0.2643,0.2644,0.2651,0.2652,0.2651,0.2651,0.2651,0.2652,0,0,0,0,0,0,0,0.2582,0.2584,0.261,0.261,0.2611,0.2614,0.2616,0.2621,0.263,0.2624,0.2625,0.263,0.2642,0.2644,0.2645,0.2652,0.2651,0.2651,0.2652,0.2652,0.2728,0.2729,0,0,0,0,0,0,0.2582,0.2583,0.2609,0.2611,0.2599,0.2614,0.2617,0.2621,0.263,0.2633,0.263,0.263,0.2643,0.2644,0.2646,0.2716,0.2651,0.2652,0.2652,0.2726,0.2728,0.273,0,0,0,0,0,0,0.2581,0.2584,0.2608,0.2599,0.2602,0.2615,0.262,0.2621,0.2634,0.2635,0.2637,0.2642,0.2643,0.2645,0.267,0.2714,0.2652,0.2653,0.2724,0.2727,0.2729,0.2812,0,0,0,0,0,0,0.258,0.2584,0.2591,0.2599,0.2603,0.2631,0.262,0.2622,0.2637,0.2638,0.2646,0.2647,0.2643,0.2669,0.267,0.2713,0.2653,0.2722,0.2725,0.2728,0.2807,0.2817,0.2826,0,0,0,0,0,0.2579,0.2585,0.2591,0.2595,0.2611,0.2632,0.2634,0.2642,0.2638,0.2652,0.266,0.2647,0.269,0.267,0.2672,0.2716,0.272,0.2724,0.2728,0.2803,0.2815,0.2826,0,0,0,0,0,0,0.2573,0.2587,0.2594,0.2604,0.2625,0.2634,0.2644,0.2649,0.2665,0.2669,0.2663,0.2665,0.2705,0.2696,0.2674,0.2747,0.2706,0.271,0.2763,0.2774,0.2783,0.2791,0.2653,0,0,0,0,0,0.2576,0.2584,0.2603,0.2614,0.2624,0.2636,0.2646,0.2658,0.267,0.2677,0.2685,0.2697,0.2719,0.2734,0.2744,0.2781,0.2798,0.2812,0.2821,0.2829,0.2837,0.293,0.295,0.2742,0.2742,0.2742,0,0,0.2575,0.2585,0.2589,0.2614,0.2626,0.2652,0.2642,0.2667,0.2698,0.2677,0.2716,0.2725,0.2734,0.278,0.2797,0.278,0.2892,0.2834,0.2841,0.2844,0.2937,0.2957,0.2975,0.2745,0.2745,0.2744,0,0,0.2585,0.259,0.2607,0.2628,0.2658,0.2668,0.2679,0.2703,0.2724,0.2762,0.2763,0.2803,0.282,0.2852,0.2866,0.2931,0.2934,0.2933,0.2994,0.3086,0.3104,0.312,0.3149,0.3168,0.2944,0.2944,0.2944,0,0.2589,0.2607,0.2617,0.2646,0.2669,0.2677,0.2714,0.2735,0.2768,0.2805,0.2785,0.2859,0.2861,0.2941,0.2962,0.2956,0.2986,0.2951,0.31,0.3117,0.3132,0.3158,0.3177,0.2948,0.2948,0.2947,0.2947,0,0.2616,0.2636,0.2647,0.2685,0.2719,0.2742,0.2782,0.2818,0.2837,0.2872,0.2951,0.2962,0.302,0.3024,0.3009,0.3123,0.31,0.3098,0.3075,0.3158,0.3179,0.3198,0.2955,0.2953,0.2952,0.2951,0,0,0.2607,0.2654,0.266,0.2686,0.2741,0.2767,0.2833,0.2902,0.2957,0.2997,0.3088,0.3122,0.3149,0.3165,0.3169,0.3229,0.3348,0.3212,0.3214,0.3244,0.352,0.3427,0.3438,0.3386,0.339,0.3394,0.3484,0,0.2624,0.2677,0.2705,0.2759,0.2791,0.2835,0.2891,0.2965,0.3027,0.3115,0.3168,0.3241,0.32,0.324,0.3305,0.3342,0.3405,0.3321,0.3431,0.3433,0.3346,0.346,0.3176,0.3228,0.3502,0.3505,0.3507,0,0.2642,0.2678,0.2736,0.28,0.2819,0.2855,0.2965,0.303,0.3161,0.3215,0.3321,0.3364,0.3468,0.3419,0.3546,0.3499,0.3523,0.3532,0.3537,0.3436,0.3376,0.3193,0.3251,0.3538,0.3536,0.3533,0.3531,0,0.2632,0.2694,0.2737,0.276,0.2839,0.2883,0.2941,0.3067,0.3146,0.3309,0.3386,0.3506,0.3604,0.3648,0.3687,0.3636,0.3815,0.3752,0.3684,0.3675,0.3445,0.341,0.386,0.386,0.3859,0.3859,0.3859,0,0.2628,0.2662,0.2727,0.275,0.2811,0.289,0.299,0.3066,0.3214,0.3319,0.3449,0.3546,0.3678,0.3789,0.3765,0.3797,0.3898,0.3717,0.3717,0.3461,0.3428,0.3702,0.3682,0.3862,0.3862,0.3861,0.386,0,0.2605,0.2643,0.2704,0.2786,0.2805,0.2871,0.2999,0.3071,0.3218,0.3371,0.3431,0.3646,0.3773,0.3862,0.3975,0.3918,0.3929,0.3916,0.358,0.3538,0.3688,0.3672,0.382,0.3818,0.3816,0.3815,0.3814,0,0.2599,0.2618,0.2717,0.2749,0.2779,0.2873,0.2921,0.3062,0.3139,0.3393,0.3446,0.3675,0.376,0.3905,0.3883,0.3864,0.3937,0.3591,0.3433,0.3712,0.3697,0.3683,0.3669,0.3148,0.3141,0.3136,0.3132,0,0.2584,0.2618,0.2659,0.2699,0.2748,0.2836,0.2914,0.297,0.3142,0.3245,0.3394,0.3494,0.3675,0.3576,0.3629,0.3558,0.3559,0.3478,0.3924,0.32,0.3086,0.3068,0.3076,0.3084,0.3089,0.3092,0.3095,0.3097,0.2571,0.2594,0.2611,0.2655,0.2711,0.2771,0.2778,0.2856,0.2937,0.3044,0.3207,0.3247,0.333,0.3244,0.3141,0.309,0.3306,0.3134,0.3148,0.3168,0.3073,0.2963,0.2916,0.292,0.2923,0.2926,0.2928,0,0.2528,0.2558,0.2562,0.2602,0.2577,0.2654,0.2734,0.2697,0.2716,0.2833,0.2894,0.2675,0.2634,0.2713,0.2557,0.2539,0.248,0.2428,0.2329,0.2381,0.2426,0.2289,0.1926,0.1923,0.1919,0.1916,0,0,0.2515,0.2478,0.2472,0.2424,0.2449,0.2427,0.2448,0.2407,0.2445,0.2382,0.2371,0.2549,0.2657,0.2264,0.2208,0.2049,0.2191,0.1963,0.2779,0.2719,0.2759,0.286,0.2712,0,0,0,0,0]},{"header":{"parameterUnit":"m.s-1","parameterCategory":2,"la1":30.2991,"la2":30.254,"lo1":-89.0895,"lo2":-89.0444,"dy":0.0017,"dx":0.0017,"nx":28,"ny":28,"refTime":"2025-11-24T03:00:00:Z","depth":"2","parameterNumber":3,"parameterNumberName":"V-component_of_CURRENTS"},"data":[0,0,0,0,0,0,0,0,0,0,0,0,0,0,0,0,0,0,0,0,0,0,0,0,0,0,0,0,0,0,0,0,0,0,0,0,0,0,0,0,0,0,0,0,0,0,0,0,0,0,0,0,0,0,0,0,0,0,0.0073,0.0073,0,0.0053,0.0053,0.0052,0.003,0.003,0.003,0.003,-0.0002,-0.0003,-0.0003,0,0,0,0,0,0,0,0,0,0,0,0,0,0.0063,0.0064,0.0073,0.0073,0.0073,0.0053,0.0053,0.0052,0.003,0.003,0.003,0.003,-0.0002,-0.0003,-0.0003,0,0,0,0,0,0,0,0,0,0,0,0,0,0.0057,0.0064,0.0073,0.0061,0.0059,0.0053,0.0053,0.0052,0.003,0.003,0.003,0.003,-0.0001,-0.0002,-0.0003,-0.0003,0,0,-0.0006,-0.0007,0,0,0,0,0,0,0,0,0.0057,0.0057,0.0063,0.0061,0.006,0.0045,0.0037,0.0033,0.0031,0.004,0.003,0.0029,0.0014,0.0011,0.0007,-0.0005,-0.0006,-0.0006,-0.0007,-0.0007,-0.0008,0,0,0,0,0,0,0,0.0058,0.0058,0.0064,0.0062,0.0061,0.0045,0.0044,0.0036,0.0028,0.0039,0.0038,0.0038,0.0013,0.0008,0.0006,-0.0006,-0.0006,-0.0007,-0.0008,-0.0008,-0.0014,-0.0013,0,0,0,0,0,0,0.0064,0.0058,0.0065,0.0064,0.0059,0.0046,0.0045,0.0049,0.0028,0.0025,0.0038,0.0037,0.001,0.0007,0.0005,0.002,-0.0007,-0.0008,-0.0009,-0.0014,-0.0014,-0.0013,0,0,0,0,0,0,0.0064,0.0065,0.0066,0.0061,0.006,0.0047,0.0052,0.0049,0.0046,0.0027,0.0024,0.0038,0.0009,0.0006,0.0003,0.0018,-0.0009,-0.001,-0.0015,-0.0014,-0.0013,0.004,0,0,0,0,0,0,0.0064,0.0066,0.007,0.0062,0.0061,0.0071,0.0052,0.0049,0.0047,0.0045,0.0026,0.0023,0.0009,0.0005,0.0002,0.0016,-0.001,-0.0015,-0.0014,-0.0014,0.0038,0.0043,0.0047,0,0,0,0,0,0.0064,0.0076,0.007,0.0071,0.0068,0.0072,0.007,0.0059,0.0047,0.0053,0.0038,0.0024,0.0008,0.0005,0.0002,0.0015,-0.0016,-0.0015,-0.0014,0.0036,0.0042,0.0047,0,0,0,0,0,0,0.0075,0.0075,0.0068,0.008,0.0079,0.0069,0.0072,0.0063,0.0055,0.0051,0.003,0.0026,0.0027,0.0014,0.001,0.0015,-0.0006,-0.0006,0.0033,0.0038,0.0042,0.006,-0.0011,0,0,0,0,0,0.008,0.0087,0.0085,0.0093,0.0094,0.0082,0.0081,0.0075,0.0067,0.0063,0.0052,0.0037,0.0029,0.0028,0.0016,0.0022,0.0003,0.0028,0.0032,0.0036,0.0048,0.0038,0.0043,-0.001,-0.001,-0.001,0,0,0.0085,0.0087,0.009,0.0096,0.0091,0.0107,0.0081,0.0085,0.01,0.0061,0.0074,0.0051,0.0032,0.0037,0.0037,0.0029,0.0037,0.0037,0.0041,0.0051,0.004,0.0045,0.0049,-0.0009,-0.0009,-0.0009,0,0,0.011,0.0103,0.0122,0.0125,0.0127,0.0122,0.0127,0.0121,0.012,0.0126,0.0101,0.0091,0.0079,0.0072,0.0066,0.0088,0.0058,0.008,0.0123,0.0113,0.0118,0.0121,0.0088,0.0089,0.0087,0.0087,0.0087,0,0.0117,0.0142,0.0128,0.015,0.0161,0.0135,0.0164,0.0159,0.0154,0.0161,0.0138,0.0123,0.0099,0.0114,0.0115,0.01,0.008,0.0106,0.012,0.0123,0.0126,0.0091,0.0091,0.009,0.0089,0.0089,0.0089,0,0.0159,0.0179,0.0191,0.0212,0.0221,0.0238,0.0236,0.0241,0.0229,0.0224,0.0229,0.0193,0.0191,0.0174,0.0149,0.0163,0.0135,0.0124,0.0109,0.0135,0.0096,0.0095,0.0094,0.0093,0.0092,0.0091,0,0,0.018,0.0216,0.022,0.0249,0.0257,0.0275,0.0296,0.0317,0.0343,0.0315,0.0351,0.0308,0.0285,0.0276,0.0242,0.0224,0.021,0.0185,0.0183,0.0157,0.0172,0.013,0.0124,0.0202,0.0203,0.0203,0.013,0,0.022,0.0284,0.0285,0.0344,0.0381,0.0369,0.04,0.041,0.0406,0.0431,0.0388,0.0403,0.0327,0.0332,0.0299,0.0246,0.0213,0.023,0.0147,0.0144,0.0109,0.0124,0.0153,0.0089,0.0129,0.0129,0.0129,0,0.0264,0.0307,0.0375,0.0433,0.0447,0.0472,0.0521,0.0547,0.0561,0.0563,0.0553,0.0521,0.0497,0.0431,0.0337,0.0352,0.0265,0.0205,0.0201,0.0148,0.0102,0.0072,0.0085,0.0126,0.0126,0.0127,0.0127,0,0.0306,0.0369,0.043,0.0448,0.0505,0.0532,0.0561,0.0586,0.0633,0.0654,0.069,0.0636,0.0646,0.0526,0.0392,0.0369,0.0285,0.024,0.0112,0.0107,0.0109,0.0103,0.0167,0.0168,0.0168,0.0168,0.0168,0,0.0355,0.0404,0.0455,0.0493,0.0574,0.059,0.0677,0.0693,0.0747,0.0829,0.0766,0.0816,0.0674,0.0605,0.0442,0.0282,0.0321,0.0123,0.0094,0.0125,0.0122,0.014,0.0138,0.0165,0.0166,0.0166,0.0167,0,0.0392,0.0422,0.0506,0.0576,0.0599,0.0662,0.076,0.083,0.0862,0.097,0.099,0.0972,0.0884,0.071,0.0543,0.0375,0.0207,0.0136,0.0169,0.0144,0.0013,0.0014,-0.0025,-0.0027,-0.0028,-0.003,-0.0031,0,0.0419,0.0463,0.0565,0.0624,0.0656,0.0751,0.0826,0.0886,0.0974,0.1069,0.1135,0.1093,0.1075,0.0798,0.0525,0.0239,0.0203,0.0061,0.0012,0.0022,-0.0003,0.0001,0.0004,0.0024,0.0024,0.0023,0.0023,0,0.0475,0.0506,0.0576,0.069,0.0777,0.0898,0.1006,0.1099,0.1196,0.1285,0.1384,0.1371,0.1125,0.0869,0.0486,0.0284,0.0103,0.0038,0.0073,0.0067,0.0062,0.0039,0.0043,0.0019,0.0019,0.002,0.002,0.002,0.0513,0.0572,0.0656,0.0766,0.0866,0.1021,0.115,0.1283,0.144,0.1582,0.1545,0.1529,0.1219,0.0738,0.0408,0.0071,0.0073,-0.0069,-0.0064,-0.006,-0.0043,-0.005,-0.0113,-0.0113,-0.0114,-0.0114,-0.0114,0,0.0564,0.0629,0.0727,0.0869,0.0985,0.1038,0.1251,0.139,0.1596,0.1691,0.1746,0.1427,0.1129,0.0779,0.0283,-0.0041,-0.0055,-0.015,-0.0089,-0.0083,-0.0078,-0.006,-0.0136,-0.0137,-0.0138,-0.0139,0,0,0.0597,0.069,0.0741,0.0931,0.1038,0.1229,0.137,0.1572,0.1691,0.1779,0.1764,0.1675,0.1243,0.0868,0.0444,0.0169,0.0114,0.0103,0.0154,0.0282,0.0291,-0.0001,0.0037,0,0,0,0,0]}],[{"header":{"parameterUnit":"m.s-1","parameterCategory":2,"la1":30.2991,"la2":30.254,"lo1":-89.0895,"lo2":-89.0444,"dy":0.0017,"dx":0.0017,"nx":28,"ny":28,"refTime":"2025-11-24T03:00:00:Z","depth":"4","parameterNumber":2,"parameterNumberName":"U-component_of_CURRENTS"},"data":[0,0,0,0,0,0,0,0,0,0,0,0,0,0,0,0,0,0,0,0,0,0,0,0,0,0,0,0,0,0,0,0,0,0,0,0,0,0,0,0,0,0,0,0,0,0,0,0,0,0,0,0,0,0,0,0,0,0,0.1645,0.1646,0,0.1705,0.1705,0.1706,0.1764,0.1765,0.1766,0.1766,0.1842,0.1843,0.1844,0,0,0,0,0,0,0,0,0,0,0,0,0,0.1575,0.1576,0.1645,0.1646,0.1647,0.1704,0.1705,0.1706,0.1764,0.1765,0.1766,0.1767,0.1841,0.1843,0.1844,0,0,0,0,0,0,0,0,0,0,0,0,0,0.1616,0.1577,0.1645,0.1684,0.1688,0.1704,0.1705,0.1706,0.1763,0.1765,0.1766,0.1767,0.1841,0.1842,0.1844,0.1829,0,0,0.185,0.185,0,0,0,0,0,0,0,0,0.1614,0.1618,0.1677,0.1681,0.1686,0.1729,0.1708,0.1748,0.1763,0.1733,0.1766,0.1768,0.1805,0.181,0.1816,0.1832,0.1835,0.185,0.1851,0.1852,0.1852,0,0,0,0,0,0,0,0.1611,0.1616,0.1667,0.1678,0.1683,0.1696,0.1703,0.1716,0.176,0.1736,0.1741,0.1749,0.1808,0.1814,0.1818,0.1836,0.185,0.1851,0.1852,0.1853,0.1957,0.1958,0,0,0,0,0,0,0.1605,0.1613,0.1666,0.1669,0.1654,0.1696,0.1704,0.1713,0.176,0.1769,0.1748,0.1752,0.1811,0.1816,0.1821,0.1899,0.1852,0.1853,0.1854,0.1955,0.1957,0.1959,0,0,0,0,0,0,0.1603,0.1609,0.1663,0.1644,0.1652,0.1696,0.1705,0.1713,0.1756,0.1769,0.1778,0.1787,0.1812,0.1819,0.1866,0.1899,0.1854,0.1856,0.1953,0.1956,0.1958,0.1995,0,0,0,0,0,0,0.1601,0.1608,0.163,0.1643,0.1653,0.1691,0.1705,0.1714,0.1758,0.1764,0.1805,0.1811,0.1814,0.1864,0.1868,0.1901,0.1857,0.1951,0.1954,0.1957,0.1992,0.1999,0.2004,0,0,0,0,0,0.1598,0.1613,0.163,0.1638,0.1675,0.1692,0.1698,0.1733,0.1759,0.1777,0.1812,0.1812,0.1887,0.1866,0.1871,0.1905,0.1949,0.1953,0.1957,0.1989,0.1997,0.2004,0,0,0,0,0,0,0.1596,0.162,0.164,0.1664,0.1687,0.1703,0.1728,0.1751,0.1793,0.1812,0.1827,0.1836,0.1891,0.1894,0.187,0.1946,0.1921,0.1926,0.1943,0.1951,0.1957,0.1957,0.1858,0,0,0,0,0,0.1603,0.1624,0.1646,0.1669,0.1684,0.1714,0.1734,0.1757,0.1786,0.1808,0.1837,0.1872,0.1903,0.1925,0.1948,0.1984,0.2,0.2013,0.2019,0.2024,0.2029,0.2093,0.2105,0.1972,0.1972,0.1971,0,0,0.1609,0.1627,0.164,0.1671,0.1695,0.1716,0.173,0.1766,0.1797,0.1807,0.1869,0.1896,0.1919,0.1964,0.1989,0.1975,0.207,0.2029,0.2033,0.2035,0.2098,0.2111,0.2123,0.1974,0.1974,0.1973,0,0,0.1613,0.1648,0.1662,0.1683,0.1723,0.1741,0.1759,0.1795,0.183,0.188,0.1903,0.195,0.1996,0.2017,0.2033,0.2089,0.2102,0.2107,0.2137,0.22,0.2211,0.2221,0.225,0.2262,0.2109,0.2109,0.2109,0,0.1623,0.1644,0.167,0.1688,0.1711,0.1756,0.1776,0.1813,0.1864,0.19,0.191,0.2005,0.2019,0.2078,0.2098,0.2102,0.2135,0.2103,0.2208,0.2218,0.2228,0.2255,0.2268,0.2111,0.2111,0.2111,0.211,0,0.1623,0.1659,0.1671,0.171,0.1736,0.1766,0.1809,0.1859,0.1911,0.1947,0.2032,0.2059,0.212,0.213,0.2129,0.221,0.2209,0.2208,0.2185,0.2244,0.2268,0.2281,0.2114,0.2113,0.2113,0.2112,0,0,0.16,0.166,0.167,0.1697,0.1755,0.1771,0.1836,0.19,0.1962,0.2022,0.2096,0.2148,0.2187,0.2207,0.2223,0.2265,0.2349,0.2271,0.2273,0.2292,0.2481,0.2319,0.2317,0.2381,0.2384,0.2386,0.2467,0,0.1601,0.1636,0.1668,0.1717,0.174,0.1803,0.185,0.1919,0.1999,0.2084,0.214,0.2216,0.2211,0.2255,0.2302,0.2348,0.2389,0.2327,0.2427,0.2429,0.2273,0.2328,0.2395,0.2476,0.2479,0.2482,0.2483,0,0.1586,0.1618,0.1657,0.1726,0.1742,0.1783,0.1887,0.1941,0.2065,0.2131,0.2231,0.2285,0.2372,0.2354,0.247,0.2441,0.2468,0.2486,0.249,0.2333,0.2291,0.2409,0.2507,0.2505,0.2503,0.2502,0.25,0,0.1543,0.1611,0.1645,0.1668,0.1747,0.1794,0.1853,0.1967,0.2031,0.2186,0.2254,0.2369,0.2442,0.2508,0.2558,0.2538,0.2666,0.2642,0.2514,0.2502,0.2608,0.2596,0.2717,0.2717,0.2717,0.2717,0.2716,0,0.1513,0.1548,0.1638,0.1657,0.1714,0.1779,0.1867,0.1953,0.2081,0.2154,0.2287,0.2356,0.2491,0.2575,0.26,0.2598,0.2714,0.2524,0.2518,0.2619,0.2609,0.2616,0.2604,0.272,0.2719,0.2718,0.2718,0,0.1447,0.1509,0.1554,0.1652,0.1695,0.1736,0.1867,0.1922,0.2064,0.2171,0.2223,0.239,0.2497,0.2593,0.2702,0.2635,0.2654,0.2622,0.2722,0.272,0.2434,0.2423,0.248,0.2475,0.2471,0.2467,0.2464,0,0.1407,0.1425,0.1538,0.1565,0.1617,0.1703,0.1754,0.1906,0.1967,0.216,0.2188,0.2355,0.2445,0.2475,0.2585,0.2629,0.2597,0.2578,0.2493,0.2425,0.2414,0.2409,0.2404,0.2458,0.2457,0.2456,0.2454,0,0.1325,0.1379,0.1414,0.1472,0.1534,0.1589,0.1685,0.1731,0.1889,0.2039,0.2113,0.2178,0.2291,0.2378,0.2437,0.2458,0.2574,0.2533,0.2541,0.2461,0.2398,0.2391,0.239,0.244,0.2442,0.2443,0.2444,0,0.1265,0.1261,0.1309,0.1345,0.1408,0.1431,0.152,0.159,0.1677,0.1902,0.1926,0.2102,0.2264,0.229,0.2342,0.2358,0.2315,0.2221,0.2244,0.2261,0.2152,0.2038,0.1969,0,0,0,0,0,0.1192,0.1163,0.1174,0.1194,0.1245,0.1291,0.1429,0.1524,0.1711,0.1712,0.1815,0.1909,0.1998,0.2097,0.2072,0.2241,0.2319,0.2198,0.222,0.2359,0.2376,0.2268,0,0,0,0,0,0,0.114,0.1139,0.112,0.1044,0.104,0.1086,0.1182,0.1324,0.1346,0.1552,0.1626,0.1763,0.1896,0.1984,0.2021,0.205,0.2018,0.2315,0.2309,0.235,0.2365,0.2379,0.2273,0,0,0,0,0]},{"header":{"parameterUnit":"m.s-1","parameterCategory":2,"la1":30.2991,"la2":30.254,"lo1":-89.0895,"lo2":-89.0444,"dy":0.0017,"dx":0.0017,"nx":28,"ny":28,"refTime":"2025-11-24T03:00:00:Z","depth":"4","parameterNumber":3,"parameterNumberName":"V-component_of_CURRENTS"},"data":[0,0,0,0,0,0,0,0,0,0,0,0,0,0,0,0,0,0,0,0,0,0,0,0,0,0,0,0,0,0,0,0,0,0,0,0,0,0,0,0,0,0,0,0,0,0,0,0,0,0,0,0,0,0,0,0,0,0,0.0034,0.0034,0,0.0019,0.0019,0.0019,0.0001,0.0001,0.0001,0.0001,-0.0026,-0.0026,-0.0027,0,0,0,0,0,0,0,0,0,0,0,0,0,0.0027,0.0027,0.0034,0.0034,0.0033,0.0019,0.0019,0.0019,0.0001,0.0001,0.0001,0.0001,-0.0025,-0.0026,-0.0027,0,0,0,0,0,0,0,0,0,0,0,0,0,0.0022,0.0027,0.0034,0.0024,0.0023,0.0019,0.0019,0.0018,0.0001,0.0001,0.0001,0.0001,-0.0025,-0.0026,-0.0027,-0.0025,0,0,-0.0029,-0.0029,0,0,0,0,0,0,0,0,0.0023,0.0023,0.0025,0.0024,0.0023,0.0012,0.0007,0.0003,0.0002,0.0009,0.0001,0.0,-0.0013,-0.0015,-0.0018,-0.0026,-0.0028,-0.0029,-0.003,-0.003,-0.003,0,0,0,0,0,0,0,0.0023,0.0023,0.0027,0.0025,0.0024,0.0013,0.0012,0.0006,-0.0001,0.0008,0.0007,0.0006,-0.0014,-0.0017,-0.0019,-0.0028,-0.0029,-0.003,-0.003,-0.0031,-0.0033,-0.0032,0,0,0,0,0,0,0.0028,0.0024,0.0028,0.0027,0.0023,0.0014,0.0013,0.0016,-0.0001,-0.0003,0.0007,0.0006,-0.0016,-0.0018,-0.002,-0.0006,-0.003,-0.0031,-0.0031,-0.0033,-0.0033,-0.0032,0,0,0,0,0,0,0.0028,0.0028,0.0028,0.0025,0.0024,0.0014,0.0018,0.0015,0.0013,-0.0002,-0.0005,0.0006,-0.0016,-0.0019,-0.0021,-0.0008,-0.0031,-0.0032,-0.0034,-0.0033,-0.0032,0.0013,0,0,0,0,0,0,0.0028,0.0028,0.0031,0.0026,0.0025,0.0033,0.0018,0.0015,0.0013,0.0012,-0.0003,-0.0006,-0.0016,-0.0019,-0.0021,-0.0009,-0.0032,-0.0034,-0.0033,-0.0033,0.0011,0.0015,0.0018,0,0,0,0,0,0.0027,0.0037,0.0032,0.0032,0.003,0.0033,0.0032,0.0023,0.0014,0.0018,0.0007,-0.0005,-0.0016,-0.0019,-0.0022,-0.001,-0.0035,-0.0034,-0.0033,0.0009,0.0014,0.0018,0,0,0,0,0,0,0.0035,0.0036,0.003,0.0039,0.0038,0.0031,0.0033,0.0026,0.002,0.0017,0.0,-0.0003,-0.0,-0.0012,-0.0015,-0.0009,-0.0028,-0.0027,0.0005,0.0009,0.0013,0.0022,-0.0033,0,0,0,0,0,0.0039,0.0045,0.0043,0.0049,0.005,0.0041,0.004,0.0035,0.0029,0.0026,0.0017,0.0007,0.0002,-0.0,-0.0007,-0.0003,-0.003,0.0002,0.0006,0.001,0.0014,-0.0016,-0.0014,-0.0029,-0.0029,-0.0029,0,0,0.0043,0.0044,0.0047,0.0051,0.0048,0.0061,0.004,0.0043,0.0055,0.0024,0.0036,0.0019,0.0005,0.0011,0.0011,0.0003,-0.0002,0.0011,0.0014,0.0017,-0.0015,-0.0013,-0.0012,-0.0029,-0.0029,-0.0029,0,0,0.0061,0.0057,0.0071,0.0075,0.0075,0.0073,0.0076,0.0072,0.0071,0.0077,0.0059,0.005,0.0045,0.0038,0.0034,0.0053,0.0018,0.005,0.0078,0.0049,0.005,0.005,0.0012,0.0008,0.0053,0.0053,0.0054,0,0.0066,0.0085,0.0075,0.0093,0.0101,0.0082,0.0104,0.0103,0.0099,0.01,0.0087,0.0073,0.006,0.0065,0.0072,0.0063,0.0034,0.0064,0.0054,0.0054,0.0054,0.0014,0.001,0.0056,0.0055,0.0055,0.0055,0,0.0097,0.0114,0.0123,0.0141,0.0148,0.0161,0.0161,0.0165,0.0158,0.0152,0.015,0.0127,0.0119,0.0112,0.01,0.0096,0.0072,0.0061,0.0043,0.0058,0.0015,0.001,0.0059,0.0058,0.0058,0.0057,0,0,0.0108,0.014,0.0143,0.0165,0.0175,0.0188,0.0206,0.0218,0.0231,0.0213,0.0224,0.0207,0.0183,0.0176,0.0153,0.0128,0.0099,0.0098,0.0095,0.006,0.0023,0.0014,0.0007,0.0083,0.0083,0.0082,-0.0009,0,0.0136,0.0184,0.0189,0.0235,0.0261,0.0255,0.028,0.0284,0.0277,0.0281,0.0246,0.0246,0.0212,0.0207,0.0176,0.0123,0.0088,0.0124,0.0013,0.001,0.0001,0.0002,0.0081,-0.0013,-0.0014,-0.0015,-0.0015,0,0.0166,0.0198,0.0248,0.0294,0.0304,0.0328,0.0356,0.0375,0.0368,0.0363,0.0342,0.0308,0.0277,0.0242,0.015,0.0173,0.0103,0.0052,0.0047,0.0021,-0.0009,-0.003,-0.0025,-0.0025,-0.0024,-0.0023,-0.0023,0,0.0186,0.0238,0.0282,0.0297,0.0343,0.0366,0.0388,0.0397,0.0428,0.0411,0.0421,0.0363,0.0345,0.0253,0.0147,0.0146,0.0032,0.0017,-0.0063,-0.0065,-0.005,-0.005,-0.0058,-0.0058,-0.0057,-0.0057,-0.0057,0,0.0215,0.0253,0.0298,0.0325,0.0388,0.0401,0.0462,0.0469,0.0493,0.0532,0.0466,0.047,0.0347,0.0266,0.0158,0.0033,0.0037,-0.0059,-0.0086,-0.003,-0.0026,-0.0055,-0.0053,-0.0061,-0.006,-0.0059,-0.0059,0,0.0231,0.0259,0.0319,0.0377,0.0402,0.0446,0.0529,0.0574,0.0579,0.0624,0.0623,0.0555,0.0447,0.0309,0.0154,0.006,-0.0066,-0.0116,-0.0051,-0.0073,-0.015,-0.0145,-0.0211,-0.0212,-0.0213,-0.0214,-0.0214,0,0.0245,0.0277,0.0359,0.0409,0.044,0.0515,0.0578,0.0618,0.0672,0.0677,0.0702,0.0606,0.0541,0.0318,0.016,-0.0059,-0.009,-0.0167,-0.0155,-0.0145,-0.0165,-0.0158,-0.0152,-0.0216,-0.0216,-0.0216,-0.0216,0,0.0277,0.0303,0.0357,0.0456,0.0531,0.0624,0.0709,0.0758,0.0802,0.0801,0.0774,0.0646,0.0518,0.033,0.0156,0.0,-0.0121,-0.0177,-0.0176,-0.0165,-0.0151,-0.0168,-0.0162,-0.0219,-0.0219,-0.0219,-0.0219,0,0.0302,0.0346,0.0419,0.0507,0.0603,0.0704,0.0751,0.0816,0.0864,0.0863,0.0847,0.0692,0.0602,0.036,0.0202,0.0044,0.0003,-0.0053,-0.0059,-0.0058,0.0011,0.0053,0.0025,0,0,0,0,0,0.0329,0.0385,0.0469,0.0572,0.0665,0.0727,0.083,0.0871,0.0906,0.0901,0.088,0.0758,0.0513,0.0403,0.0246,0.0177,-0.003,-0.0014,-0.0099,-0.0236,-0.0233,-0.0178,0,0,0,0,0,0,0.0353,0.043,0.0473,0.0606,0.0685,0.0801,0.0872,0.09,0.0904,0.09,0.078,0.0705,0.0475,0.0603,0.0238,0.0188,0.0109,-0.013,-0.0134,-0.0238,-0.0235,-0.0232,-0.0175,0,0,0,0,0]}]]